RYR363C LEMI-EGHH

Flight info

Callsign RYR363C
Flight time N/A
Altitude 36000
Route ALT N851 MITOS N608 COMPI Y90 USKAR DCT MOPAS DCT GIROM DCT AGN DCT SECHE DCT UVELI DCT CNA DCT MANAK UY110 ORIST Y110 THRED
Aircraft B738/M-SDE2E3FGHIRWXY/LB1

Departure

Time 2026-04-14 15:01
Airport Region of Murcia International Airport (LEMI)

Arrival

Time N/A
Airport Bournemouth Airport (EGHH)
Time Latitude Longitude Altitude Speed Heading
2026-04-14 14:47 37.80428 -1.13025 645 ft 0 kts 316°
2026-04-14 14:54 37.80417 -1.13012 641 ft 4 kts 311°
2026-04-14 14:54 37.80401 -1.12985 643 ft 4 kts 297°
2026-04-14 14:55 37.80393 -1.12954 642 ft 4 kts 266°
2026-04-14 14:55 37.80398 -1.12932 643 ft 1 kts 224°
2026-04-14 14:55 37.80401 -1.12929 643 ft 0 kts 224°
2026-04-14 14:57 37.80390 -1.12942 641 ft 5 kts 224°
2026-04-14 14:57 37.80353 -1.12989 640 ft 11 kts 225°
2026-04-14 14:58 37.80289 -1.13072 640 ft 15 kts 226°
2026-04-14 14:58 37.80207 -1.13159 642 ft 16 kts 197°
2026-04-14 14:58 37.80109 -1.13106 640 ft 16 kts 176°
2026-04-14 14:58 37.80014 -1.13177 640 ft 16 kts 225°
2026-04-14 14:59 37.79932 -1.13281 640 ft 17 kts 225°
2026-04-14 14:59 37.79846 -1.13391 640 ft 18 kts 225°
2026-04-14 14:59 37.79754 -1.13507 640 ft 19 kts 225°
2026-04-14 14:59 37.79661 -1.13629 640 ft 20 kts 226°
2026-04-14 15:00 37.79563 -1.13757 640 ft 21 kts 226°
2026-04-14 15:00 37.79449 -1.13846 640 ft 20 kts 162°
2026-04-14 15:00 37.79403 -1.13687 643 ft 21 kts 89°
2026-04-14 15:00 37.79519 -1.13499 641 ft 53 kts 46°
2026-04-14 15:01 37.79942 -1.12960 638 ft 118 kts 45°
2026-04-14 15:01 37.80644 -1.12042 692 ft 166 kts 41°
2026-04-14 15:01 37.81460 -1.10982 1431 ft 164 kts 46°
2026-04-14 15:01 37.82285 -1.09966 2154 ft 170 kts 44°
2026-04-14 15:02 37.83214 -1.08867 2497 ft 198 kts 42°
2026-04-14 15:02 37.84297 -1.07652 2743 ft 220 kts 33°
2026-04-14 15:02 37.85668 -1.06659 3036 ft 236 kts 26°
2026-04-14 15:02 37.87166 -1.05661 3344 ft 253 kts 25°
2026-04-14 15:03 37.88734 -1.04610 4151 ft 255 kts 25°
2026-04-14 15:03 37.90300 -1.03552 4978 ft 257 kts 25°
2026-04-14 15:03 37.91891 -1.02471 5787 ft 260 kts 24°
2026-04-14 15:03 37.93476 -1.01381 6636 ft 261 kts 25°
2026-04-14 15:04 37.95079 -1.00280 7388 ft 262 kts 25°
2026-04-14 15:04 37.96686 -0.99174 8162 ft 265 kts 25°
2026-04-14 15:04 37.98309 -0.98053 8947 ft 266 kts 25°
2026-04-14 15:04 37.99938 -0.96924 9786 ft 268 kts 24°
2026-04-14 15:05 38.01584 -0.95783 10456 ft 274 kts 25°
2026-04-14 15:05 38.03330 -0.94575 10639 ft 298 kts 25°
2026-04-14 15:05 38.05215 -0.93270 10844 ft 318 kts 25°
2026-04-14 15:05 38.07184 -0.91899 11340 ft 327 kts 26°
2026-04-14 15:06 38.09191 -0.90498 12008 ft 331 kts 26°
2026-04-14 15:06 38.11206 -0.89089 12808 ft 331 kts 26°
2026-04-14 15:06 38.13234 -0.87700 13620 ft 332 kts 26°
2026-04-14 15:06 38.15266 -0.86290 14355 ft 334 kts 27°
2026-04-14 15:07 38.17305 -0.84855 15044 ft 337 kts 27°
2026-04-14 15:07 38.19362 -0.83403 15748 ft 339 kts 27°
2026-04-14 15:07 38.21431 -0.81944 16453 ft 342 kts 26°
2026-04-14 15:07 38.23518 -0.80475 17145 ft 344 kts 27°
2026-04-14 15:08 38.25622 -0.78995 17850 ft 347 kts 26°
2026-04-14 15:08 38.27742 -0.77505 18507 ft 350 kts 26°
2026-04-14 15:08 38.29878 -0.76003 19124 ft 351 kts 27°
2026-04-14 15:08 38.32017 -0.74499 19803 ft 351 kts 27°
2026-04-14 15:09 38.33301 -0.73595 20216 ft 350 kts 26°
2026-04-14 15:09 38.35434 -0.72093 20860 ft 351 kts 26°
2026-04-14 15:09 38.37574 -0.70586 21475 ft 352 kts 26°
2026-04-14 15:09 38.39716 -0.69077 22087 ft 353 kts 26°
2026-04-14 15:10 38.41867 -0.67561 22682 ft 353 kts 26°
2026-04-14 15:10 38.44722 -0.65546 23429 ft 355 kts 26°
2026-04-14 15:10 38.46184 -0.64514 23786 ft 356 kts 26°
2026-04-14 15:10 38.48356 -0.62980 24211 ft 358 kts 26°
2026-04-14 15:11 38.50547 -0.61433 24579 ft 362 kts 25°
2026-04-14 15:11 38.52754 -0.59871 25008 ft 364 kts 25°
2026-04-14 15:11 38.54973 -0.58300 25428 ft 366 kts 25°
2026-04-14 15:11 38.57206 -0.56718 25836 ft 368 kts 25°
2026-04-14 15:12 38.59449 -0.55129 26195 ft 370 kts 25°
2026-04-14 15:12 38.61711 -0.53535 26561 ft 373 kts 25°
2026-04-14 15:12 38.63989 -0.51918 26904 ft 376 kts 25°
2026-04-14 15:12 38.66283 -0.50285 27266 ft 379 kts 25°
2026-04-14 15:13 38.68583 -0.48645 27818 ft 378 kts 24°
2026-04-14 15:13 38.70890 -0.47001 28208 ft 380 kts 24°
2026-04-14 15:13 38.73211 -0.45347 28526 ft 383 kts 24°
2026-04-14 15:13 38.75517 -0.43704 28822 ft 386 kts 24°
2026-04-14 15:14 38.77871 -0.42025 29153 ft 388 kts 24°
2026-04-14 15:14 38.80235 -0.40337 29544 ft 389 kts 24°
2026-04-14 15:14 38.82587 -0.38655 30075 ft 386 kts 24°
2026-04-14 15:14 38.84921 -0.36984 30525 ft 384 kts 24°
2026-04-14 15:15 38.87247 -0.35318 30970 ft 382 kts 24°
2026-04-14 15:15 38.89555 -0.33665 31445 ft 378 kts 24°
2026-04-14 15:15 38.91843 -0.32024 31883 ft 376 kts 24°
2026-04-14 15:15 38.94119 -0.30392 32258 ft 374 kts 24°
2026-04-14 15:16 38.96385 -0.28767 32650 ft 372 kts 23°
2026-04-14 15:16 38.98637 -0.27149 33063 ft 370 kts 24°
2026-04-14 15:16 39.00878 -0.25539 33436 ft 368 kts 24°
2026-04-14 15:16 39.03105 -0.23937 33865 ft 366 kts 24°
2026-04-14 15:17 39.05314 -0.22347 34262 ft 363 kts 24°
2026-04-14 15:17 39.07515 -0.20764 34513 ft 362 kts 24°
2026-04-14 15:17 39.09717 -0.19178 34760 ft 363 kts 24°
2026-04-14 15:17 39.11918 -0.17591 34997 ft 363 kts 24°
2026-04-14 15:18 39.14127 -0.15999 35161 ft 365 kts 24°
2026-04-14 15:18 39.16354 -0.14391 35279 ft 369 kts 24°
2026-04-14 15:18 39.18597 -0.12771 35413 ft 371 kts 24°
2026-04-14 15:18 39.20856 -0.11137 35603 ft 372 kts 24°
2026-04-14 15:19 39.23111 -0.09503 35857 ft 372 kts 24°
2026-04-14 15:19 39.25365 -0.07868 36072 ft 372 kts 25°
2026-04-14 15:19 39.29916 -0.04569 36098 ft 377 kts 25°
2026-04-14 15:20 39.34489 -0.01319 36093 ft 371 kts 21°
2026-04-14 15:20 39.39303 0.00804 36127 ft 364 kts 13°
2026-04-14 15:21 39.44173 0.02569 36108 ft 363 kts 13°
2026-04-14 15:21 39.49019 0.04342 36103 ft 362 kts 14°
2026-04-14 15:22 39.53854 0.06126 36099 ft 361 kts 14°
2026-04-14 15:22 39.58684 0.07915 36090 ft 361 kts 14°
2026-04-14 15:23 39.63493 0.09699 36102 ft 362 kts 14°
2026-04-14 15:23 39.68351 0.11505 36104 ft 364 kts 14°
2026-04-14 15:24 39.73237 0.13324 36108 ft 366 kts 14°
2026-04-14 15:24 39.78146 0.15154 36108 ft 368 kts 14°
2026-04-14 15:25 39.83076 0.16995 36095 ft 369 kts 14°
2026-04-14 15:25 39.88020 0.18844 36107 ft 370 kts 14°
2026-04-14 15:26 39.92969 0.20698 36105 ft 370 kts 14°
2026-04-14 15:26 39.97922 0.22555 36098 ft 370 kts 14°
2026-04-14 15:27 40.02867 0.24412 36097 ft 369 kts 14°
2026-04-14 15:27 40.07803 0.26264 36093 ft 368 kts 14°
2026-04-14 15:28 40.12726 0.28114 36101 ft 368 kts 14°
2026-04-14 15:28 40.17635 0.29963 36098 ft 367 kts 14°
2026-04-14 15:29 40.22539 0.31812 36095 ft 366 kts 14°
2026-04-14 15:29 40.27435 0.33661 36085 ft 366 kts 13°
2026-04-14 15:30 40.32324 0.35510 36083 ft 366 kts 13°
2026-04-14 15:30 40.37211 0.37366 36101 ft 366 kts 13°
2026-04-14 15:31 40.42112 0.39232 36087 ft 368 kts 14°
2026-04-14 15:31 40.47031 0.41108 36083 ft 368 kts 14°
2026-04-14 15:32 40.51958 0.42990 36077 ft 369 kts 14°
2026-04-14 15:32 40.56861 0.44865 36077 ft 370 kts 14°
2026-04-14 15:33 40.61802 0.46757 36074 ft 370 kts 14°
2026-04-14 15:33 40.66749 0.48655 36067 ft 370 kts 14°
2026-04-14 15:34 40.71703 0.50559 36065 ft 371 kts 14°
2026-04-14 15:34 40.76659 0.52466 36060 ft 371 kts 14°
2026-04-14 15:35 40.81610 0.54374 36069 ft 370 kts 14°
2026-04-14 15:35 40.86551 0.56282 36068 ft 370 kts 14°
2026-04-14 15:36 40.91501 0.58195 36063 ft 370 kts 14°
2026-04-14 15:36 40.96431 0.60105 36058 ft 369 kts 13°
2026-04-14 15:37 41.01356 0.62015 36054 ft 369 kts 14°
2026-04-14 15:37 41.06276 0.63926 36056 ft 368 kts 14°
2026-04-14 15:38 41.11193 0.65839 36054 ft 368 kts 14°
2026-04-14 15:38 41.16101 0.67749 36054 ft 367 kts 13°
2026-04-14 15:39 41.21003 0.69657 36047 ft 368 kts 13°
2026-04-14 15:39 41.25911 0.71569 36050 ft 368 kts 14°
2026-04-14 15:40 41.30829 0.73489 36041 ft 368 kts 14°
2026-04-14 15:40 41.35741 0.75410 36058 ft 368 kts 13°
2026-04-14 15:41 41.40655 0.77335 36074 ft 369 kts 14°
2026-04-14 15:41 41.45583 0.79269 36054 ft 369 kts 14°
2026-04-14 15:42 41.50510 0.81206 36051 ft 369 kts 14°
2026-04-14 15:42 41.55430 0.83143 36045 ft 368 kts 14°
2026-04-14 15:43 41.60341 0.85079 36048 ft 368 kts 14°
2026-04-14 15:43 41.65209 0.87001 36035 ft 367 kts 14°
2026-04-14 15:44 41.70088 0.88931 36043 ft 365 kts 14°
2026-04-14 15:44 41.74952 0.90858 36044 ft 364 kts 14°
2026-04-14 15:45 41.79800 0.92781 36032 ft 363 kts 14°
2026-04-14 15:45 41.84633 0.94702 36074 ft 362 kts 14°
2026-04-14 15:46 41.89452 0.96620 36093 ft 361 kts 14°
2026-04-14 15:46 41.94275 0.98542 36108 ft 361 kts 14°
2026-04-14 15:47 41.99097 1.00467 36106 ft 362 kts 14°
2026-04-14 15:47 42.03928 1.02396 36112 ft 361 kts 14°
2026-04-14 15:48 42.08750 1.04325 36118 ft 362 kts 14°
2026-04-14 15:48 42.13637 1.05994 36105 ft 362 kts
2026-04-14 15:49 42.18659 1.06190 36106 ft 362 kts 356°
2026-04-14 15:49 42.23685 1.05618 36085 ft 362 kts 356°
2026-04-14 15:50 42.28723 1.05038 36073 ft 364 kts 356°
2026-04-14 15:50 42.33775 1.04473 36086 ft 364 kts 356°
2026-04-14 15:51 42.38820 1.03918 36074 ft 365 kts 356°
2026-04-14 15:51 42.43877 1.03359 36101 ft 365 kts 355°
2026-04-14 15:52 42.48964 1.02806 36099 ft 368 kts 356°
2026-04-14 15:52 42.54077 1.02246 36128 ft 369 kts 355°
2026-04-14 15:53 42.59202 1.01694 36100 ft 370 kts 356°
2026-04-14 15:53 42.64282 1.01144 36176 ft 369 kts 355°
2026-04-14 15:54 42.72011 1.00300 36176 ft 373 kts 355°
2026-04-14 15:55 42.77192 0.99736 36183 ft 374 kts 355°
2026-04-14 15:55 42.82382 0.99168 36162 ft 374 kts 355°
2026-04-14 15:56 42.87560 0.98598 36196 ft 372 kts 355°
2026-04-14 15:56 42.92737 0.98027 36187 ft 373 kts 355°
2026-04-14 15:57 42.97891 0.97462 36174 ft 370 kts 355°
2026-04-14 15:57 43.02148 0.96993 36210 ft 368 kts 355°
2026-04-14 15:58 43.07234 0.96432 36188 ft 365 kts 355°
2026-04-14 15:58 43.12286 0.95873 36177 ft 363 kts 355°
2026-04-14 15:59 43.17313 0.95316 36175 ft 362 kts 355°
2026-04-14 15:59 43.22327 0.94761 36191 ft 361 kts 355°
2026-04-14 16:00 43.27344 0.94204 36201 ft 362 kts 355°
2026-04-14 16:00 43.32379 0.93643 36196 ft 364 kts 355°
2026-04-14 16:01 43.37437 0.93080 36197 ft 365 kts 355°
2026-04-14 16:01 43.42519 0.92512 36186 ft 367 kts 355°
2026-04-14 16:02 43.47620 0.91942 36191 ft 369 kts 355°
2026-04-14 16:02 43.52743 0.91368 36198 ft 370 kts 355°
2026-04-14 16:03 43.57876 0.90792 36188 ft 370 kts 355°
2026-04-14 16:03 43.63011 0.90214 36190 ft 370 kts 355°
2026-04-14 16:04 43.68150 0.89636 36195 ft 370 kts 355°
2026-04-14 16:04 43.73284 0.89056 36195 ft 370 kts 355°
2026-04-14 16:05 43.78411 0.88477 36196 ft 369 kts 355°
2026-04-14 16:05 43.83526 0.87898 36190 ft 368 kts 355°
2026-04-14 16:06 43.88596 0.86940 36199 ft 368 kts 347°
2026-04-14 16:06 43.93395 0.84418 36199 ft 370 kts 338°
2026-04-14 16:07 43.98065 0.81374 36187 ft 370 kts 338°
2026-04-14 16:07 44.02727 0.78336 36190 ft 370 kts 338°
2026-04-14 16:08 44.07397 0.75304 36159 ft 370 kts 338°
2026-04-14 16:08 44.12064 0.72277 36189 ft 370 kts 338°
2026-04-14 16:09 44.16729 0.69250 36192 ft 371 kts 338°
2026-04-14 16:09 44.21406 0.66208 36189 ft 371 kts 338°
2026-04-14 16:10 44.26085 0.63160 36183 ft 371 kts 338°
2026-04-14 16:10 44.30766 0.60104 36197 ft 372 kts 338°
2026-04-14 16:11 44.35426 0.57057 36197 ft 373 kts 338°
2026-04-14 16:11 44.40129 0.53976 36185 ft 374 kts 338°
2026-04-14 16:12 44.44837 0.50886 36187 ft 374 kts 338°
2026-04-14 16:12 44.49547 0.47768 36184 ft 375 kts 337°
2026-04-14 16:13 44.54257 0.44639 36183 ft 375 kts 337°
2026-04-14 16:13 44.58974 0.41501 36182 ft 375 kts 337°
2026-04-14 16:14 44.63688 0.38360 36186 ft 375 kts 337°
2026-04-14 16:14 44.68400 0.35214 36173 ft 375 kts 337°
2026-04-14 16:15 44.73108 0.32067 36179 ft 375 kts 337°
2026-04-14 16:15 44.77819 0.28912 36185 ft 375 kts 336°
2026-04-14 16:16 44.82530 0.25751 36187 ft 375 kts 336°
2026-04-14 16:16 44.87246 0.22580 36184 ft 375 kts 336°
2026-04-14 16:17 44.91957 0.19408 36187 ft 375 kts 336°
2026-04-14 16:17 44.96670 0.16227 36185 ft 375 kts 336°
2026-04-14 16:18 45.01385 0.13040 36190 ft 376 kts 336°
2026-04-14 16:18 45.06099 0.09849 36185 ft 375 kts 336°
2026-04-14 16:19 45.10806 0.06659 36185 ft 375 kts 336°
2026-04-14 16:19 45.15512 0.03464 36186 ft 375 kts 336°
2026-04-14 16:20 45.20209 0.00269 36186 ft 375 kts 336°
2026-04-14 16:20 45.24904 -0.02931 36177 ft 374 kts 336°
2026-04-14 16:21 45.29588 -0.06129 36183 ft 373 kts 336°
2026-04-14 16:21 45.34268 -0.09332 36185 ft 373 kts 336°
2026-04-14 16:22 45.38947 -0.12538 36190 ft 373 kts 336°
2026-04-14 16:22 45.43590 -0.15727 36189 ft 373 kts 335°
2026-04-14 16:23 45.48263 -0.18941 36187 ft 373 kts 335°
2026-04-14 16:23 45.52937 -0.22163 36187 ft 373 kts 335°
2026-04-14 16:24 45.57610 -0.25390 36185 ft 373 kts 335°
2026-04-14 16:24 45.62282 -0.28621 36182 ft 373 kts 335°
2026-04-14 16:25 45.66861 -0.32120 36177 ft 375 kts 327°
2026-04-14 16:25 45.70977 -0.36735 36189 ft 376 kts 324°
2026-04-14 16:26 45.75070 -0.41393 36189 ft 376 kts 324°
2026-04-14 16:26 45.79172 -0.46047 36195 ft 376 kts 324°
2026-04-14 16:27 45.83274 -0.50697 36191 ft 376 kts 324°
2026-04-14 16:27 45.87380 -0.55357 36190 ft 376 kts 324°
2026-04-14 16:28 45.91482 -0.60021 36195 ft 376 kts 324°
2026-04-14 16:28 45.95586 -0.64696 36188 ft 377 kts 324°
2026-04-14 16:29 45.99688 -0.69377 36191 ft 377 kts 324°
2026-04-14 16:29 46.03762 -0.74036 36193 ft 377 kts 324°
2026-04-14 16:30 46.07860 -0.78732 36192 ft 376 kts 324°
2026-04-14 16:30 46.11956 -0.83434 36183 ft 376 kts 324°
2026-04-14 16:31 46.16047 -0.88142 36198 ft 377 kts 324°
2026-04-14 16:31 46.20150 -0.92869 36191 ft 378 kts 323°
2026-04-14 16:32 46.24259 -0.97609 36188 ft 378 kts 323°
2026-04-14 16:32 46.28374 -1.02361 36186 ft 379 kts 323°
2026-04-14 16:33 46.32493 -1.07128 36186 ft 379 kts 323°
2026-04-14 16:33 46.36610 -1.11903 36192 ft 379 kts 323°
2026-04-14 16:34 46.40728 -1.16688 36185 ft 380 kts 323°
2026-04-14 16:34 46.44847 -1.21484 36162 ft 380 kts 322°
2026-04-14 16:35 46.48957 -1.26281 36185 ft 379 kts 322°
2026-04-14 16:35 46.53070 -1.31091 36186 ft 380 kts 322°
2026-04-14 16:36 46.57158 -1.35879 36192 ft 380 kts 322°
2026-04-14 16:36 46.61470 -1.40290 36179 ft 380 kts 333°
2026-04-14 16:37 46.66239 -1.43616 36179 ft 380 kts 334°
2026-04-14 16:37 46.71005 -1.46947 36183 ft 380 kts 333°
2026-04-14 16:38 46.75769 -1.50314 36191 ft 380 kts 333°
2026-04-14 16:38 46.80528 -1.53693 36179 ft 381 kts 333°
2026-04-14 16:39 46.85323 -1.56977 36169 ft 381 kts 339°
2026-04-14 16:39 46.90497 -1.58739 36166 ft 385 kts 352°
2026-04-14 16:40 46.95847 -1.59261 36171 ft 386 kts 353°
2026-04-14 16:40 47.01200 -1.59771 36157 ft 385 kts 352°
2026-04-14 16:41 47.06549 -1.60312 36161 ft 385 kts 352°
2026-04-14 16:41 47.11896 -1.60864 36158 ft 385 kts 352°
2026-04-14 16:42 47.17245 -1.61430 36170 ft 385 kts 351°
2026-04-14 16:42 47.22577 -1.62145 36159 ft 385 kts 351°
2026-04-14 16:43 47.27910 -1.62883 36158 ft 385 kts 351°
2026-04-14 16:43 47.33251 -1.63605 36156 ft 385 kts 351°
2026-04-14 16:44 47.38587 -1.64342 36154 ft 385 kts 350°
2026-04-14 16:44 47.43923 -1.65106 36147 ft 385 kts 350°
2026-04-14 16:45 47.51028 -1.66125 36145 ft 385 kts 350°
2026-04-14 16:45 47.56367 -1.66890 36140 ft 385 kts 350°
2026-04-14 16:46 47.61711 -1.67656 36124 ft 386 kts 349°
2026-04-14 16:46 47.67064 -1.68427 36138 ft 387 kts 349°
2026-04-14 16:47 47.72442 -1.69201 36137 ft 389 kts 349°
2026-04-14 16:47 47.77839 -1.69980 36139 ft 390 kts 349°
2026-04-14 16:48 47.83255 -1.70763 36136 ft 392 kts 349°
2026-04-14 16:48 47.88691 -1.71550 36131 ft 393 kts 349°
2026-04-14 16:49 47.94142 -1.72342 36129 ft 394 kts 349°
2026-04-14 16:49 47.99606 -1.73136 36133 ft 394 kts 349°
2026-04-14 16:50 48.05072 -1.73933 36129 ft 395 kts 349°
2026-04-14 16:50 48.10541 -1.74351 36136 ft 397 kts 354°
2026-04-14 16:51 48.16072 -1.74376 36130 ft 397 kts 354°
2026-04-14 16:51 48.21596 -1.74394 36139 ft 397 kts 354°
2026-04-14 16:52 48.27114 -1.74440 36124 ft 396 kts 353°
2026-04-14 16:52 48.32623 -1.74502 36118 ft 396 kts 353°
2026-04-14 16:53 48.38124 -1.74567 36117 ft 395 kts 353°
2026-04-14 16:53 48.43619 -1.74632 36113 ft 395 kts 353°
2026-04-14 16:54 48.49115 -1.74698 36105 ft 395 kts 353°